Weather in Lugovoe

Russia / Ulyanovsk Oblast     54°12′59″N   48°14′29″E
temp.,
°C
wind,
m/s
gust,
m/s
humid.,
%
clouds,
%
prec.,
mm/h
press.,
hPa
HPBL,
m
5 march, fri
fri501:00−4w3387100 0.1 99948
04:00−4wnw1293100 0.2 100021
07:00−5wnw1197100 0.6 100021
10:00−4n3596100 1.8 1001325
13:00−4nnw3592100 0.6 1003421
16:00−5nw258792 0.6 1006302
19:00−8w34890 0.0 100950
22:00−10wsw34910 0.0 101158
6 march, sat
sat601:00−11sw479248 0.0 1011114
04:00−10wsw5109326 0.0 1012204
07:00−12w510920 0.0 1013206
10:00−11wnw59890 0.0 1015295
13:00−9nw35833 0.0 1015296
16:00−8wsw128245 0.0 1014257
19:00−12sw2285100 0.0 101421
22:00−14wsw228567 0.0 101520
7 march, sun
sun701:00−15wsw23900 0.0 101320
04:00−15wsw23944 0.0 101320
07:00−16wsw239662 0.0 101321
10:00−12wsw379337 0.0 1013220
13:00−8wsw478934 0.0 1011517
16:00−6sw588364 0.1 1009921
19:00−7ssw6138681 0.0 1007587
22:00−7ssw8158690 0.0 1004746
8 march, mon
mon801:00−6ssw91691100 0.4 999972
04:00−4wsw91487100 1.6 9971004
07:00−9wsw7158655 0.0 998504
10:00−8sw8177727 0.0 1000738
13:00−4sw8137351 0.0 9991018
16:00−4sw7119261 0.1 997860
19:00−6w61380100 0.9 998664
22:00−9wsw7148851 0.9 1001442
9 march, tue
tue901:00−10wsw512906 0.0 1002356
04:00−12wsw512928 0.0 1003307
07:00−12wsw5129192 0.0 1005350
10:00−9w5108971 0.0 1007555
13:00−8wnw588683 0.0 1009815
16:00−8w478494 0.0 1011795
19:00−13wnw339185 0.0 101227
22:00−15w229389 0.0 101320